owner,sensor,date,latitude,longitude,vertical_datum,sea_water_practical_salinity,qcFlag 
SCCF RECON,ioos:station:SCCF:53:1,2009-08-01T00:00:00Z,26.6493,-81.8810,2.02,0.65,1111122 
SCCF RECON,ioos:station:SCCF:53:1,2009-08-01T01:00:00Z,26.6493,-81.8810,2.0,0.68,1111122 
SCCF RECON,ioos:station:SCCF:53:1,2009-08-01T02:00:00Z,26.6493,-81.8810,2.001,0.56,1111122 
SCCF RECON,ioos:station:SCCF:53:1,2009-08-01T03:00:00Z,26.6493,-81.8810,2.03,0.63,1111122 
SCCF RECON,ioos:station:SCCF:53:1,2009-08-01T04:00:00Z,26.6493,-81.8810,2.07,1.6,1111122 
SCCF RECON,ioos:station:SCCF:53:1,2009-08-01T05:00:00Z,26.6493,-81.8810,2.1,3.48,1111122 
SCCF RECON,ioos:station:SCCF:53:1,2009-08-01T06:00:00Z,26.6493,-81.8810,2.14,3.0,1111122 
SCCF RECON,ioos:station:SCCF:53:1,2009-08-01T07:00:00Z,26.6493,-81.8810,2.17,3.19,1111122 
SCCF RECON,ioos:station:SCCF:53:1,2009-08-01T08:00:00Z,26.6493,-81.8810,2.19,2.87,1111122 
SCCF RECON,ioos:station:SCCF:53:1,2009-08-01T09:00:00Z,26.6493,-81.8810,2.18,3.34,1111122 
SCCF RECON,ioos:station:SCCF:53:1,2009-08-01T10:00:00Z,26.6493,-81.8810,2.15,3.34,1111122 
SCCF RECON,ioos:station:SCCF:53:1,2009-08-01T11:00:00Z,26.6493,-81.8810,2.143,2.05,1111122 
SCCF RECON,ioos:station:SCCF:53:1,2009-08-01T12:00:00Z,26.6493,-81.8810,2.17,2.65,1111122 
SCCF RECON,ioos:station:SCCF:53:1,2009-08-01T13:00:00Z,26.6493,-81.8810,2.238,3.74,1111122 
SCCF RECON,ioos:station:SCCF:53:1,2009-08-01T14:00:00Z,26.6493,-81.8810,2.29,3.64,1111122 
SCCF RECON,ioos:station:SCCF:53:1,2009-08-01T15:00:00Z,26.6493,-81.8810,2.341,4.11,1111122 
SCCF RECON,ioos:station:SCCF:53:1,2009-08-01T16:00:00Z,26.6493,-81.8810,2.387,4.6,1111122 
SCCF RECON,ioos:station:SCCF:53:1,2009-08-01T17:00:00Z,26.6493,-81.8810,2.394,4.28,1111122 
SCCF RECON,ioos:station:SCCF:53:1,2009-08-01T18:00:00Z,26.6493,-81.8810,2.358,4.84,1111122 
SCCF RECON,ioos:station:SCCF:53:1,2009-08-01T19:00:00Z,26.6493,-81.8810,2.29,3.61,1111122 
SCCF RECON,ioos:station:SCCF:53:1,2009-08-01T20:00:00Z,26.6493,-81.8810,2.241,3.48,1111122 
SCCF RECON,ioos:station:SCCF:53:1,2009-08-01T21:00:00Z,26.6493,-81.8810,2.197,1.99,1111122 
SCCF RECON,ioos:station:SCCF:53:1,2009-08-01T22:00:00Z,26.6493,-81.8810,2.13,1.93,1111122 
SCCF RECON,ioos:station:SCCF:53:1,2009-08-01T23:00:00Z,26.6493,-81.8810,2.09,1.87,1111122 
SCCF RECON,ioos:station:SCCF:53:1,2009-08-02T00:00:00Z,26.6493,-81.8810,2.05,1.08,1111122 
SCCF RECON,ioos:station:SCCF:53:1,2009-08-02T01:00:00Z,26.6493,-81.8810,2.01,0.77,1111122 
SCCF RECON,ioos:station:SCCF:53:1,2009-08-02T02:00:00Z,26.6493,-81.8810,1.993,0.59,1111122 
SCCF RECON,ioos:station:SCCF:53:1,2009-08-02T03:00:00Z,26.6493,-81.8810,2.022,0.75,1111122 
SCCF RECON,ioos:station:SCCF:53:1,2009-08-02T04:00:00Z,26.6493,-81.8810,2.078,2.55,1111122 
SCCF RECON,ioos:station:SCCF:53:1,2009-08-02T05:00:00Z,26.6493,-81.8810,2.12,3.52,1111122 
SCCF RECON,ioos:station:SCCF:53:1,2009-08-02T06:00:00Z,26.6493,-81.8810,2.16,3.05,1111122 
SCCF RECON,ioos:station:SCCF:53:1,2009-08-02T07:00:00Z,26.6493,-81.8810,2.19,2.21,1111122 
SCCF RECON,ioos:station:SCCF:53:1,2009-08-02T08:00:00Z,26.6493,-81.8810,2.21,1.8,1111122 
SCCF RECON,ioos:station:SCCF:53:1,2009-08-02T09:00:00Z,26.6493,-81.8810,2.21,2.8,1111122 
SCCF RECON,ioos:station:SCCF:53:1,2009-08-02T10:00:00Z,26.6493,-81.8810,2.17,1.81,1111122 
SCCF RECON,ioos:station:SCCF:53:1,2009-08-02T11:00:00Z,26.6493,-81.8810,2.16,2.18,1111122 
SCCF RECON,ioos:station:SCCF:53:1,2009-08-02T12:00:00Z,26.6493,-81.8810,2.158,2.73,1111122 
SCCF RECON,ioos:station:SCCF:53:1,2009-08-02T13:00:00Z,26.6493,-81.8810,2.19,3.21,1111122 
SCCF RECON,ioos:station:SCCF:53:1,2009-08-02T14:00:00Z,26.6493,-81.8810,2.25,3.26,1111122 
SCCF RECON,ioos:station:SCCF:53:1,2009-08-02T15:00:00Z,26.6493,-81.8810,2.31,3.2,1111122 
SCCF RECON,ioos:station:SCCF:53:1,2009-08-02T16:00:00Z,26.6493,-81.8810,2.368,3.57,1111122 
SCCF RECON,ioos:station:SCCF:53:1,2009-08-02T17:00:00Z,26.6493,-81.8810,2.41,3.17,1111122 
SCCF RECON,ioos:station:SCCF:53:1,2009-08-02T18:00:00Z,26.6493,-81.8810,2.458,2.77,1111122 
SCCF RECON,ioos:station:SCCF:53:1,2009-08-02T19:00:00Z,26.6493,-81.8810,2.397,2.17,1111122 
SCCF RECON,ioos:station:SCCF:53:1,2009-08-02T20:00:00Z,26.6493,-81.8810,2.329,1.63,1111122 
SCCF RECON,ioos:station:SCCF:53:1,2009-08-02T21:00:00Z,26.6493,-81.8810,2.279,1.76,1111122 
SCCF RECON,ioos:station:SCCF:53:1,2009-08-02T22:00:00Z,26.6493,-81.8810,2.24,1.32,1111122 
SCCF RECON,ioos:station:SCCF:53:1,2009-08-02T23:00:00Z,26.6493,-81.8810,2.164,0.79,1111122 
SCCF RECON,ioos:station:SCCF:53:1,2009-08-03T00:00:00Z,26.6493,-81.8810,2.118,0.64,1111122 
SCCF RECON,ioos:station:SCCF:53:1,2009-08-03T01:00:00Z,26.6493,-81.8810,2.074,0.54,1111122 
SCCF RECON,ioos:station:SCCF:53:1,2009-08-03T02:00:00Z,26.6493,-81.8810,2.05,0.34,1111122 
SCCF RECON,ioos:station:SCCF:53:1,2009-08-03T03:00:00Z,26.6493,-81.8810,2.04,0.34,1111122 
SCCF RECON,ioos:station:SCCF:53:1,2009-08-03T04:00:00Z,26.6493,-81.8810,2.08,0.38,1111122 
SCCF RECON,ioos:station:SCCF:53:1,2009-08-03T05:00:00Z,26.6493,-81.8810,2.13,0.35,1111122 
SCCF RECON,ioos:station:SCCF:53:1,2009-08-03T06:00:00Z,26.6493,-81.8810,2.18,0.43,1111122 
SCCF RECON,ioos:station:SCCF:53:1,2009-08-03T07:00:00Z,26.6493,-81.8810,2.23,0.72,1111122 
SCCF RECON,ioos:station:SCCF:53:1,2009-08-03T08:00:00Z,26.6493,-81.8810,2.26,1.0,1111122 
SCCF RECON,ioos:station:SCCF:53:1,2009-08-03T09:00:00Z,26.6493,-81.8810,2.27,0.99,1111122 
SCCF RECON,ioos:station:SCCF:53:1,2009-08-03T10:00:00Z,26.6493,-81.8810,2.25,0.79,1111122 
SCCF RECON,ioos:station:SCCF:53:1,2009-08-03T11:00:00Z,26.6493,-81.8810,2.209,0.57,1111122 
SCCF RECON,ioos:station:SCCF:53:1,2009-08-03T12:00:00Z,26.6493,-81.8810,2.18,0.4,1111122 
SCCF RECON,ioos:station:SCCF:53:1,2009-08-03T13:00:00Z,26.6493,-81.8810,2.197,0.4,1111122 
SCCF RECON,ioos:station:SCCF:53:1,2009-08-03T14:00:00Z,26.6493,-81.8810,2.25,0.85,1111122 
SCCF RECON,ioos:station:SCCF:53:1,2009-08-03T15:00:00Z,26.6493,-81.8810,2.329,0.87,1111122 
SCCF RECON,ioos:station:SCCF:53:1,2009-08-03T16:00:00Z,26.6493,-81.8810,2.389,1.18,1111122 
SCCF RECON,ioos:station:SCCF:53:1,2009-08-03T17:00:00Z,26.6493,-81.8810,2.44,1.34,1111122 
SCCF RECON,ioos:station:SCCF:53:1,2009-08-03T18:00:00Z,26.6493,-81.8810,2.47,1.27,1111122 
SCCF RECON,ioos:station:SCCF:53:1,2009-08-03T19:00:00Z,26.6493,-81.8810,2.454,1.2,1111122 
SCCF RECON,ioos:station:SCCF:53:1,2009-08-03T20:00:00Z,26.6493,-81.8810,2.4,0.66,1111122 
SCCF RECON,ioos:station:SCCF:53:1,2009-08-03T21:00:00Z,26.6493,-81.8810,2.33,0.73,1111122 
SCCF RECON,ioos:station:SCCF:53:1,2009-08-03T22:00:00Z,26.6493,-81.8810,2.271,0.56,1111122 
SCCF RECON,ioos:station:SCCF:53:1,2009-08-03T23:00:00Z,26.6493,-81.8810,2.218,0.42,1111122 
SCCF RECON,ioos:station:SCCF:53:1,2009-08-04T00:00:00Z,26.6493,-81.8810,2.167,0.37,1111122 
SCCF RECON,ioos:station:SCCF:53:1,2009-08-04T01:00:00Z,26.6493,-81.8810,2.12,0.31,1111122 
SCCF RECON,ioos:station:SCCF:53:1,2009-08-04T02:00:00Z,26.6493,-81.8810,2.079,0.29,1111122 
SCCF RECON,ioos:station:SCCF:53:1,2009-08-04T03:00:00Z,26.6493,-81.8810,2.05,0.28,1111122 
SCCF RECON,ioos:station:SCCF:53:1,2009-08-04T04:00:00Z,26.6493,-81.8810,2.05,0.28,1111122 
SCCF RECON,ioos:station:SCCF:53:1,2009-08-04T05:00:00Z,26.6493,-81.8810,2.08,0.28,1111122 
SCCF RECON,ioos:station:SCCF:53:1,2009-08-04T06:00:00Z,26.6493,-81.8810,2.13,0.29,1111122 
SCCF RECON,ioos:station:SCCF:53:1,2009-08-04T07:00:00Z,26.6493,-81.8810,2.18,0.33,1111122 
SCCF RECON,ioos:station:SCCF:53:1,2009-08-04T08:00:00Z,26.6493,-81.8810,2.23,0.37,1111122 
SCCF RECON,ioos:station:SCCF:53:1,2009-08-04T09:00:00Z,26.6493,-81.8810,2.26,0.38,1111122 
SCCF RECON,ioos:station:SCCF:53:1,2009-08-04T10:00:00Z,26.6493,-81.8810,2.24,0.32,1111122 
SCCF RECON,ioos:station:SCCF:53:1,2009-08-04T11:00:00Z,26.6493,-81.8810,2.201,0.33,1111122 
SCCF RECON,ioos:station:SCCF:53:1,2009-08-04T12:00:00Z,26.6493,-81.8810,2.166,0.29,1111122 
SCCF RECON,ioos:station:SCCF:53:1,2009-08-04T13:00:00Z,26.6493,-81.8810,2.149,0.29,1111122 
SCCF RECON,ioos:station:SCCF:53:1,2009-08-04T14:00:00Z,26.6493,-81.8810,2.172,0.28,1111122 
SCCF RECON,ioos:station:SCCF:53:1,2009-08-04T15:00:00Z,26.6493,-81.8810,2.25,0.29,1111122 
SCCF RECON,ioos:station:SCCF:53:1,2009-08-04T16:00:00Z,26.6493,-81.8810,2.31,0.34,1111122 
SCCF RECON,ioos:station:SCCF:53:1,2009-08-04T17:00:00Z,26.6493,-81.8810,2.371,0.5,1111122 
SCCF RECON,ioos:station:SCCF:53:1,2009-08-04T18:00:00Z,26.6493,-81.8810,2.43,0.55,1111122 
SCCF RECON,ioos:station:SCCF:53:1,2009-08-04T19:00:00Z,26.6493,-81.8810,2.45,0.59,1111122 
SCCF RECON,ioos:station:SCCF:53:1,2009-08-04T20:00:00Z,26.6493,-81.8810,2.422,0.58,1111122 
SCCF RECON,ioos:station:SCCF:53:1,2009-08-04T21:00:00Z,26.6493,-81.8810,2.401,0.47,1111122 
SCCF RECON,ioos:station:SCCF:53:1,2009-08-04T22:00:00Z,26.6493,-81.8810,2.301,0.4,1111122 
SCCF RECON,ioos:station:SCCF:53:1,2009-08-04T23:00:00Z,26.6493,-81.8810,2.251,0.32,1111122 
SCCF RECON,ioos:station:SCCF:53:1,2009-08-05T00:00:00Z,26.6493,-81.8810,2.19,0.29,1111122 
SCCF RECON,ioos:station:SCCF:53:1,2009-08-05T01:00:00Z,26.6493,-81.8810,2.14,0.29,1111122 
SCCF RECON,ioos:station:SCCF:53:1,2009-08-05T02:00:00Z,26.6493,-81.8810,2.09,0.28,1111122 
SCCF RECON,ioos:station:SCCF:53:1,2009-08-05T03:00:00Z,26.6493,-81.8810,2.043,0.28,1111122 
SCCF RECON,ioos:station:SCCF:53:1,2009-08-05T04:00:00Z,26.6493,-81.8810,2.03,0.27,1111122 
SCCF RECON,ioos:station:SCCF:53:1,2009-08-05T05:00:00Z,26.6493,-81.8810,2.07,0.27,1111122 
SCCF RECON,ioos:station:SCCF:53:1,2009-08-05T06:00:00Z,26.6493,-81.8810,2.1,0.28,1111122 
SCCF RECON,ioos:station:SCCF:53:1,2009-08-05T07:00:00Z,26.6493,-81.8810,2.15,0.28,1111122 
SCCF RECON,ioos:station:SCCF:53:1,2009-08-05T08:00:00Z,26.6493,-81.8810,2.2,0.29,1111122 
SCCF RECON,ioos:station:SCCF:53:1,2009-08-05T09:00:00Z,26.6493,-81.8810,2.238,0.29,1111122 
SCCF RECON,ioos:station:SCCF:53:1,2009-08-05T10:00:00Z,26.6493,-81.8810,2.23,0.29,1111122 
SCCF RECON,ioos:station:SCCF:53:1,2009-08-05T11:00:00Z,26.6493,-81.8810,2.2,0.29,1111122 
SCCF RECON,ioos:station:SCCF:53:1,2009-08-05T12:00:00Z,26.6493,-81.8810,2.17,0.28,1111122 
SCCF RECON,ioos:station:SCCF:53:1,2009-08-05T13:00:00Z,26.6493,-81.8810,2.142,0.28,1111122 
SCCF RECON,ioos:station:SCCF:53:1,2009-08-05T14:00:00Z,26.6493,-81.8810,2.133,0.28,1111122 
SCCF RECON,ioos:station:SCCF:53:1,2009-08-05T15:00:00Z,26.6493,-81.8810,2.189,0.28,1111122 
SCCF RECON,ioos:station:SCCF:53:1,2009-08-05T16:00:00Z,26.6493,-81.8810,2.26,0.28,1111122 
SCCF RECON,ioos:station:SCCF:53:1,2009-08-05T17:00:00Z,26.6493,-81.8810,2.322,0.29,1111122 
SCCF RECON,ioos:station:SCCF:53:1,2009-08-05T18:00:00Z,26.6493,-81.8810,2.41,0.3,1111122 
SCCF RECON,ioos:station:SCCF:53:1,2009-08-05T19:00:00Z,26.6493,-81.8810,2.438,0.32,1111122 
SCCF RECON,ioos:station:SCCF:53:1,2009-08-05T20:00:00Z,26.6493,-81.8810,2.44,0.33,1111122 
SCCF RECON,ioos:station:SCCF:53:1,2009-08-05T21:00:00Z,26.6493,-81.8810,2.4,0.32,1111122 
SCCF RECON,ioos:station:SCCF:53:1,2009-08-05T22:00:00Z,26.6493,-81.8810,2.337,0.3,1111122 
SCCF RECON,ioos:station:SCCF:53:1,2009-08-05T23:00:00Z,26.6493,-81.8810,2.27,0.29,1111122 
SCCF RECON,ioos:station:SCCF:53:1,2009-08-06T00:00:00Z,26.6493,-81.8810,2.21,0.28,1111122 
SCCF RECON,ioos:station:SCCF:53:1,2009-08-06T01:00:00Z,26.6493,-81.8810,2.16,0.28,1111122 
SCCF RECON,ioos:station:SCCF:53:1,2009-08-06T02:00:00Z,26.6493,-81.8810,2.11,0.27,1111122 
SCCF RECON,ioos:station:SCCF:53:1,2009-08-06T03:00:00Z,26.6493,-81.8810,2.06,0.27,1111122 
SCCF RECON,ioos:station:SCCF:53:1,2009-08-06T04:00:00Z,26.6493,-81.8810,2.03,0.27,1111122 
SCCF RECON,ioos:station:SCCF:53:1,2009-08-06T05:00:00Z,26.6493,-81.8810,2.05,0.27,1111122 
SCCF RECON,ioos:station:SCCF:53:1,2009-08-06T06:00:00Z,26.6493,-81.8810,2.11,0.27,1111122 
SCCF RECON,ioos:station:SCCF:53:1,2009-08-06T07:00:00Z,26.6493,-81.8810,2.15,0.28,1111122 
SCCF RECON,ioos:station:SCCF:53:1,2009-08-06T08:00:00Z,26.6493,-81.8810,2.21,0.28,1111122 
SCCF RECON,ioos:station:SCCF:53:1,2009-08-06T09:00:00Z,26.6493,-81.8810,2.25,0.28,1111122 
SCCF RECON,ioos:station:SCCF:53:1,2009-08-06T10:00:00Z,26.6493,-81.8810,2.26,0.28,1111122 
SCCF RECON,ioos:station:SCCF:53:1,2009-08-06T11:00:00Z,26.6493,-81.8810,2.23,0.28,1111122 
SCCF RECON,ioos:station:SCCF:53:1,2009-08-06T12:00:00Z,26.6493,-81.8810,2.19,0.28,1111122 
SCCF RECON,ioos:station:SCCF:53:1,2009-08-06T13:00:00Z,26.6493,-81.8810,2.151,0.27,1111122 
SCCF RECON,ioos:station:SCCF:53:1,2009-08-06T14:00:00Z,26.6493,-81.8810,2.13,0.27,1111122 
SCCF RECON,ioos:station:SCCF:53:1,2009-08-06T15:00:00Z,26.6493,-81.8810,2.15,0.27,1111122 
SCCF RECON,ioos:station:SCCF:53:1,2009-08-06T18:00:00Z,26.6493,-81.8810,2.383,0.28,1111122 
SCCF RECON,ioos:station:SCCF:53:1,2009-08-06T19:00:00Z,26.6493,-81.8810,2.442,0.28,1111122 
SCCF RECON,ioos:station:SCCF:53:1,2009-08-06T20:00:00Z,26.6493,-81.8810,2.47,0.29,1111122 
SCCF RECON,ioos:station:SCCF:53:1,2009-08-06T21:00:00Z,26.6493,-81.8810,2.4,0.29,1111122 
SCCF RECON,ioos:station:SCCF:53:1,2009-08-06T22:00:00Z,26.6493,-81.8810,2.35,0.28,1111122 
SCCF RECON,ioos:station:SCCF:53:1,2009-08-06T23:00:00Z,26.6493,-81.8810,2.3,0.28,1111122 
SCCF RECON,ioos:station:SCCF:53:1,2009-08-07T00:00:00Z,26.6493,-81.8810,2.248,0.28,1111122 
SCCF RECON,ioos:station:SCCF:53:1,2009-08-07T01:00:00Z,26.6493,-81.8810,2.199,0.27,1111122 
SCCF RECON,ioos:station:SCCF:53:1,2009-08-07T02:00:00Z,26.6493,-81.8810,2.15,0.27,1111122 
SCCF RECON,ioos:station:SCCF:53:1,2009-08-07T03:00:00Z,26.6493,-81.8810,2.09,0.27,1111122 
SCCF RECON,ioos:station:SCCF:53:1,2009-08-07T04:00:00Z,26.6493,-81.8810,2.05,0.27,1111122 
SCCF RECON,ioos:station:SCCF:53:1,2009-08-07T05:00:00Z,26.6493,-81.8810,2.053,0.27,1111122 
SCCF RECON,ioos:station:SCCF:53:1,2009-08-07T06:00:00Z,26.6493,-81.8810,2.1,0.26,1111122 
SCCF RECON,ioos:station:SCCF:53:1,2009-08-07T07:00:00Z,26.6493,-81.8810,2.16,0.28,1111122 
SCCF RECON,ioos:station:SCCF:53:1,2009-08-07T08:00:00Z,26.6493,-81.8810,2.213,0.27,1111122 
SCCF RECON,ioos:station:SCCF:53:1,2009-08-07T09:00:00Z,26.6493,-81.8810,2.26,0.27,1111122 
SCCF RECON,ioos:station:SCCF:53:1,2009-08-07T10:00:00Z,26.6493,-81.8810,2.28,0.27,1111122 
SCCF RECON,ioos:station:SCCF:53:1,2009-08-07T11:00:00Z,26.6493,-81.8810,2.28,0.27,1111122 
SCCF RECON,ioos:station:SCCF:53:1,2009-08-07T12:00:00Z,26.6493,-81.8810,2.23,0.27,1111122 
SCCF RECON,ioos:station:SCCF:53:1,2009-08-07T13:00:00Z,26.6493,-81.8810,2.19,0.27,1111122 
SCCF RECON,ioos:station:SCCF:53:1,2009-08-07T14:00:00Z,26.6493,-81.8810,2.15,0.27,1111122 
SCCF RECON,ioos:station:SCCF:53:1,2009-08-07T15:00:00Z,26.6493,-81.8810,2.132,0.26,1111122 
SCCF RECON,ioos:station:SCCF:53:1,2009-08-07T16:00:00Z,26.6493,-81.8810,2.2,0.26,1111122 
SCCF RECON,ioos:station:SCCF:53:1,2009-08-07T17:00:00Z,26.6493,-81.8810,2.27,0.27,1111122 
SCCF RECON,ioos:station:SCCF:53:1,2009-08-07T18:00:00Z,26.6493,-81.8810,2.327,0.28,1111122 
SCCF RECON,ioos:station:SCCF:53:1,2009-08-07T19:00:00Z,26.6493,-81.8810,2.398,0.29,1111122 
SCCF RECON,ioos:station:SCCF:53:1,2009-08-07T20:00:00Z,26.6493,-81.8810,2.455,0.33,1111122 
SCCF RECON,ioos:station:SCCF:53:1,2009-08-07T21:00:00Z,26.6493,-81.8810,2.48,0.64,1111122 
SCCF RECON,ioos:station:SCCF:53:1,2009-08-07T22:00:00Z,26.6493,-81.8810,2.476,0.32,1111122 
SCCF RECON,ioos:station:SCCF:53:1,2009-08-07T23:00:00Z,26.6493,-81.8810,2.41,0.28,1111122 
SCCF RECON,ioos:station:SCCF:53:1,2009-08-08T00:00:00Z,26.6493,-81.8810,2.35,0.27,1111122 
SCCF RECON,ioos:station:SCCF:53:1,2009-08-08T01:00:00Z,26.6493,-81.8810,2.295,0.27,1111122 
SCCF RECON,ioos:station:SCCF:53:1,2009-08-08T02:00:00Z,26.6493,-81.8810,2.24,0.26,1111122 
SCCF RECON,ioos:station:SCCF:53:1,2009-08-08T03:00:00Z,26.6493,-81.8810,2.19,0.26,1111122 
SCCF RECON,ioos:station:SCCF:53:1,2009-08-08T04:00:00Z,26.6493,-81.8810,2.14,0.26,1111122 
SCCF RECON,ioos:station:SCCF:53:1,2009-08-08T05:00:00Z,26.6493,-81.8810,2.11,0.25,1111122 
SCCF RECON,ioos:station:SCCF:53:1,2009-08-08T06:00:00Z,26.6493,-81.8810,2.14,0.25,1111122 
SCCF RECON,ioos:station:SCCF:53:1,2009-08-08T07:00:00Z,26.6493,-81.8810,2.21,0.25,1111122 
SCCF RECON,ioos:station:SCCF:53:1,2009-08-08T08:00:00Z,26.6493,-81.8810,2.26,0.26,1111122 
SCCF RECON,ioos:station:SCCF:53:1,2009-08-08T09:00:00Z,26.6493,-81.8810,2.316,0.27,1111122 
SCCF RECON,ioos:station:SCCF:53:1,2009-08-08T10:00:00Z,26.6493,-81.8810,2.34,0.3,1111122 
SCCF RECON,ioos:station:SCCF:53:1,2009-08-08T11:00:00Z,26.6493,-81.8810,2.32,0.28,1111122 
SCCF RECON,ioos:station:SCCF:53:1,2009-08-08T12:00:00Z,26.6493,-81.8810,2.28,0.27,1111122 
SCCF RECON,ioos:station:SCCF:53:1,2009-08-08T13:00:00Z,26.6493,-81.8810,2.23,0.25,1111122 
SCCF RECON,ioos:station:SCCF:53:1,2009-08-08T14:00:00Z,26.6493,-81.8810,2.18,0.25,1111122 
SCCF RECON,ioos:station:SCCF:53:1,2009-08-08T15:00:00Z,26.6493,-81.8810,2.143,0.25,1111122 
SCCF RECON,ioos:station:SCCF:53:1,2009-08-08T16:00:00Z,26.6493,-81.8810,2.137,0.24,1111122 
SCCF RECON,ioos:station:SCCF:53:1,2009-08-08T17:00:00Z,26.6493,-81.8810,2.19,0.24,1111122 
SCCF RECON,ioos:station:SCCF:53:1,2009-08-08T18:00:00Z,26.6493,-81.8810,2.253,0.25,1111122 
SCCF RECON,ioos:station:SCCF:53:1,2009-08-08T19:00:00Z,26.6493,-81.8810,2.311,0.26,1111122 
SCCF RECON,ioos:station:SCCF:53:1,2009-08-08T20:00:00Z,26.6493,-81.8810,2.374,0.26,1111122 
SCCF RECON,ioos:station:SCCF:53:1,2009-08-08T21:00:00Z,26.6493,-81.8810,2.44,0.31,1111122 
SCCF RECON,ioos:station:SCCF:53:1,2009-08-08T22:00:00Z,26.6493,-81.8810,2.458,0.34,1111122 
SCCF RECON,ioos:station:SCCF:53:1,2009-08-08T23:00:00Z,26.6493,-81.8810,2.424,0.34,1111122 
SCCF RECON,ioos:station:SCCF:53:1,2009-08-09T00:00:00Z,26.6493,-81.8810,2.371,0.26,1111122 
SCCF RECON,ioos:station:SCCF:53:1,2009-08-09T01:00:00Z,26.6493,-81.8810,2.31,0.25,1111122 
SCCF RECON,ioos:station:SCCF:53:1,2009-08-09T02:00:00Z,26.6493,-81.8810,2.25,0.25,1111122 
SCCF RECON,ioos:station:SCCF:53:1,2009-08-09T03:00:00Z,26.6493,-81.8810,2.21,0.24,1111122 
SCCF RECON,ioos:station:SCCF:53:1,2009-08-09T04:00:00Z,26.6493,-81.8810,2.161,0.24,1111122 
SCCF RECON,ioos:station:SCCF:53:1,2009-08-09T05:00:00Z,26.6493,-81.8810,2.128,0.24,1111122 
SCCF RECON,ioos:station:SCCF:53:1,2009-08-09T06:00:00Z,26.6493,-81.8810,2.149,0.24,1111122 
SCCF RECON,ioos:station:SCCF:53:1,2009-08-09T07:00:00Z,26.6493,-81.8810,2.18,0.24,1111122 
SCCF RECON,ioos:station:SCCF:53:1,2009-08-09T08:00:00Z,26.6493,-81.8810,2.24,0.24,1111122 
SCCF RECON,ioos:station:SCCF:53:1,2009-08-09T09:00:00Z,26.6493,-81.8810,2.3,0.25,1111122 
SCCF RECON,ioos:station:SCCF:53:1,2009-08-09T10:00:00Z,26.6493,-81.8810,2.345,0.26,1111122 
SCCF RECON,ioos:station:SCCF:53:1,2009-08-09T11:00:00Z,26.6493,-81.8810,2.33,0.26,1111122 
SCCF RECON,ioos:station:SCCF:53:1,2009-08-09T12:00:00Z,26.6493,-81.8810,2.29,0.25,1111122 
SCCF RECON,ioos:station:SCCF:53:1,2009-08-09T13:00:00Z,26.6493,-81.8810,2.24,0.24,1111122 
SCCF RECON,ioos:station:SCCF:53:1,2009-08-09T14:00:00Z,26.6493,-81.8810,2.193,0.24,1111122 
SCCF RECON,ioos:station:SCCF:53:1,2009-08-09T15:00:00Z,26.6493,-81.8810,2.15,0.23,1111122 
SCCF RECON,ioos:station:SCCF:53:1,2009-08-09T16:00:00Z,26.6493,-81.8810,2.108,0.23,1111122 
SCCF RECON,ioos:station:SCCF:53:1,2009-08-09T17:00:00Z,26.6493,-81.8810,2.088,0.23,1111122 
SCCF RECON,ioos:station:SCCF:53:1,2009-08-09T18:00:00Z,26.6493,-81.8810,2.14,0.23,1111122 
SCCF RECON,ioos:station:SCCF:53:1,2009-08-09T19:00:00Z,26.6493,-81.8810,2.2,0.24,1111122 
SCCF RECON,ioos:station:SCCF:53:1,2009-08-09T20:00:00Z,26.6493,-81.8810,2.243,0.25,1111122 
SCCF RECON,ioos:station:SCCF:53:1,2009-08-09T21:00:00Z,26.6493,-81.8810,2.31,0.26,1111122 
SCCF RECON,ioos:station:SCCF:53:1,2009-08-09T22:00:00Z,26.6493,-81.8810,2.35,0.26,1111122 
SCCF RECON,ioos:station:SCCF:53:1,2009-08-09T23:00:00Z,26.6493,-81.8810,2.327,0.25,1111122 
SCCF RECON,ioos:station:SCCF:53:1,2009-08-10T00:00:00Z,26.6493,-81.8810,2.299,0.24,1111122 
SCCF RECON,ioos:station:SCCF:53:1,2009-08-10T01:00:00Z,26.6493,-81.8810,2.25,0.24,1111122 
SCCF RECON,ioos:station:SCCF:53:1,2009-08-10T02:00:00Z,26.6493,-81.8810,2.2,0.24,1111122 
SCCF RECON,ioos:station:SCCF:53:1,2009-08-10T03:00:00Z,26.6493,-81.8810,2.16,0.23,1111122 
SCCF RECON,ioos:station:SCCF:53:1,2009-08-10T04:00:00Z,26.6493,-81.8810,2.11,0.23,1111122 
SCCF RECON,ioos:station:SCCF:53:1,2009-08-10T05:00:00Z,26.6493,-81.8810,2.079,0.23,1111122 
SCCF RECON,ioos:station:SCCF:53:1,2009-08-10T06:00:00Z,26.6493,-81.8810,2.08,0.23,1111122 
SCCF RECON,ioos:station:SCCF:53:1,2009-08-10T07:00:00Z,26.6493,-81.8810,2.14,0.23,1111122 
SCCF RECON,ioos:station:SCCF:53:1,2009-08-10T08:00:00Z,26.6493,-81.8810,2.2,0.23,1111122 
SCCF RECON,ioos:station:SCCF:53:1,2009-08-10T09:00:00Z,26.6493,-81.8810,2.25,0.24,1111122 
SCCF RECON,ioos:station:SCCF:53:1,2009-08-10T10:00:00Z,26.6493,-81.8810,2.31,0.25,1111122 
SCCF RECON,ioos:station:SCCF:53:1,2009-08-10T11:00:00Z,26.6493,-81.8810,2.34,0.27,1111122 
SCCF RECON,ioos:station:SCCF:53:1,2009-08-10T12:00:00Z,26.6493,-81.8810,2.34,0.26,1111122 
SCCF RECON,ioos:station:SCCF:53:1,2009-08-10T13:00:00Z,26.6493,-81.8810,2.29,0.26,1111122 
SCCF RECON,ioos:station:SCCF:53:1,2009-08-10T14:00:00Z,26.6493,-81.8810,2.231,0.23,1111122 
SCCF RECON,ioos:station:SCCF:53:1,2009-08-10T15:00:00Z,26.6493,-81.8810,2.181,0.23,1111122 
SCCF RECON,ioos:station:SCCF:53:1,2009-08-10T16:00:00Z,26.6493,-81.8810,2.13,0.23,1111122 
SCCF RECON,ioos:station:SCCF:53:1,2009-08-10T17:00:00Z,26.6493,-81.8810,2.087,0.23,1111122 
SCCF RECON,ioos:station:SCCF:53:1,2009-08-10T18:00:00Z,26.6493,-81.8810,2.08,0.23,1111122 
SCCF RECON,ioos:station:SCCF:53:1,2009-08-10T19:00:00Z,26.6493,-81.8810,2.131,0.23,1111122 
SCCF RECON,ioos:station:SCCF:53:1,2009-08-10T20:00:00Z,26.6493,-81.8810,2.19,0.23,1111122 
SCCF RECON,ioos:station:SCCF:53:1,2009-08-10T21:00:00Z,26.6493,-81.8810,2.268,0.24,1111122 
SCCF RECON,ioos:station:SCCF:53:1,2009-08-10T22:00:00Z,26.6493,-81.8810,2.33,0.26,1111122 
SCCF RECON,ioos:station:SCCF:53:1,2009-08-10T23:00:00Z,26.6493,-81.8810,2.363,0.3,1111122 
SCCF RECON,ioos:station:SCCF:53:1,2009-08-11T00:00:00Z,26.6493,-81.8810,2.36,0.28,1111122 
SCCF RECON,ioos:station:SCCF:53:1,2009-08-11T01:00:00Z,26.6493,-81.8810,2.3,0.24,1111122 
SCCF RECON,ioos:station:SCCF:53:1,2009-08-11T02:00:00Z,26.6493,-81.8810,2.24,0.23,1111122 
SCCF RECON,ioos:station:SCCF:53:1,2009-08-11T03:00:00Z,26.6493,-81.8810,2.2,0.23,1111122 
SCCF RECON,ioos:station:SCCF:53:1,2009-08-11T04:00:00Z,26.6493,-81.8810,2.15,0.23,1111122 
SCCF RECON,ioos:station:SCCF:53:1,2009-08-11T05:00:00Z,26.6493,-81.8810,2.11,0.23,1111122 
SCCF RECON,ioos:station:SCCF:53:1,2009-08-11T06:00:00Z,26.6493,-81.8810,2.11,0.23,1111122 
SCCF RECON,ioos:station:SCCF:53:1,2009-08-11T07:00:00Z,26.6493,-81.8810,2.17,0.23,1111122 
SCCF RECON,ioos:station:SCCF:53:1,2009-08-11T08:00:00Z,26.6493,-81.8810,2.229,0.23,1111122 
SCCF RECON,ioos:station:SCCF:53:1,2009-08-11T09:00:00Z,26.6493,-81.8810,2.28,0.24,1111122 
SCCF RECON,ioos:station:SCCF:53:1,2009-08-11T10:00:00Z,26.6493,-81.8810,2.35,0.23,1111122 
SCCF RECON,ioos:station:SCCF:53:1,2009-08-11T11:00:00Z,26.6493,-81.8810,2.39,0.24,1111122 
SCCF RECON,ioos:station:SCCF:53:1,2009-08-11T12:00:00Z,26.6493,-81.8810,2.4,0.25,1111122 
SCCF RECON,ioos:station:SCCF:53:1,2009-08-11T13:00:00Z,26.6493,-81.8810,2.35,0.23,1111122 
SCCF RECON,ioos:station:SCCF:53:1,2009-08-11T14:00:00Z,26.6493,-81.8810,2.29,0.24,1111122 
SCCF RECON,ioos:station:SCCF:53:1,2009-08-11T15:00:00Z,26.6493,-81.8810,2.239,0.23,1111122 
SCCF RECON,ioos:station:SCCF:53:1,2009-08-11T16:00:00Z,26.6493,-81.8810,2.178,0.23,1111122 
SCCF RECON,ioos:station:SCCF:53:1,2009-08-11T17:00:00Z,26.6493,-81.8810,2.119,0.23,1111122 
SCCF RECON,ioos:station:SCCF:53:1,2009-08-11T18:00:00Z,26.6493,-81.8810,2.07,0.23,1111122 
SCCF RECON,ioos:station:SCCF:53:1,2009-08-11T19:00:00Z,26.6493,-81.8810,2.05,0.23,1111122 
SCCF RECON,ioos:station:SCCF:53:1,2009-08-11T20:00:00Z,26.6493,-81.8810,2.101,0.23,1111122 
SCCF RECON,ioos:station:SCCF:53:1,2009-08-11T21:00:00Z,26.6493,-81.8810,2.169,0.23,1111122 
SCCF RECON,ioos:station:SCCF:53:1,2009-08-11T22:00:00Z,26.6493,-81.8810,2.204,0.23,1111122 
SCCF RECON,ioos:station:SCCF:53:1,2009-08-11T23:00:00Z,26.6493,-81.8810,2.27,0.23,1111122 